Hourly Weather Kleban'

Today, 30 July, Friday

Time Temperature Precipitation Wind Pressure Humidity
00:00 +20°C° 0.2 mm 3 mps 741 mmHg 90%
01:00 +20°C° 0.2 mm 3 mps 741 mmHg 92%
02:00 +20°C° 0.2 mm 2 mps 742 mmHg 93%
03:00 +20°C° 0 mm 2 mps 742 mmHg 93%
04:00 +19°C° 0 mm 2 mps 742 mmHg 93%
05:00 +19°C° 0 mm 2 mps 742 mmHg 93%
06:00 +21°C° 0 mm 3 mps 742 mmHg 86%
07:00 +22°C° 0 mm 3 mps 742 mmHg 79%
08:00 +25°C° 0 mm 3 mps 742 mmHg 72%
09:00 +26°C° 0 mm 3 mps 742 mmHg 65%
10:00 +27°C° 0 mm 3 mps 743 mmHg 57%
11:00 +29°C° 0 mm 3 mps 743 mmHg 50%
12:00 +29°C° 0 mm 3 mps 742 mmHg 47%
13:00 +30°C° 0 mm 3 mps 742 mmHg 44%
14:00 +30°C° 0 mm 3 mps 742 mmHg 41%
15:00 +30°C° 0 mm 3 mps 742 mmHg 42%
16:00 +30°C° 0 mm 3 mps 742 mmHg 42%
17:00 +30°C° 0 mm 2 mps 741 mmHg 42%
18:00 +28°C° 0 mm 2 mps 741 mmHg 48%
19:00 +26°C° 0 mm 1 mps 741 mmHg 53%
20:00 +24°C° 0 mm 1 mps 741 mmHg 59%
21:00 +24°C° 0 mm 1 mps 742 mmHg 60%
22:00 +23°C° 0 mm 1 mps 742 mmHg 61%
23:00 +22°C° 0 mm 1 mps 742 mmHg 63%

Tomorrow, 31 July, Saturday

Time Temperature Precipitation Wind Pressure Humidity
00:00 +22°C° 0 mm 1 mps 742 mmHg 64%
01:00 +22°C° 0 mm 1 mps 742 mmHg 65%
02:00 +21°C° 0 mm 1 mps 742 mmHg 65%
03:00 +21°C° 0 mm 1 mps 742 mmHg 66%
04:00 +21°C° 0 mm 1 mps 742 mmHg 67%
05:00 +21°C° 0 mm 1 mps 742 mmHg 68%
06:00 +23°C° 0 mm 1 mps 742 mmHg 64%
07:00 +25°C° 0 mm 1 mps 742 mmHg 60%
08:00 +27°C° 0 mm 1 mps 742 mmHg 56%
09:00 +28°C° 0 mm 1 mps 742 mmHg 51%
10:00 +29°C° 0 mm 2 mps 742 mmHg 47%
11:00 +31°C° 0 mm 2 mps 742 mmHg 43%
12:00 +31°C° 0 mm 2 mps 742 mmHg 40%
13:00 +32°C° 0 mm 2 mps 742 mmHg 38%
14:00 +34°C° 0 mm 2 mps 742 mmHg 36%
15:00 +34°C° 0 mm 2 mps 741 mmHg 37%
16:00 +32°C° 0 mm 2 mps 741 mmHg 38%
17:00 +32°C° 0 mm 2 mps 741 mmHg 39%
18:00 +30°C° 0 mm 2 mps 741 mmHg 44%
19:00 +29°C° 0 mm 2 mps 741 mmHg 50%
20:00 +27°C° 0 mm 3 mps 741 mmHg 55%
21:00 +26°C° 0 mm 3 mps 741 mmHg 54%
22:00 +26°C° 0 mm 3 mps 741 mmHg 53%
23:00 +26°C° 0 mm 3 mps 741 mmHg 52%

Day after tomorrow, 1 August, Sunday

Time Temperature Precipitation Wind Pressure Humidity
00:00 +25°C° 0 mm 3 mps 741 mmHg 56%
01:00 +24°C° 0 mm 3 mps 741 mmHg 60%
02:00 +22°C° 0 mm 3 mps 741 mmHg 64%
03:00 +22°C° 0 mm 3 mps 741 mmHg 69%
04:00 +21°C° 0 mm 3 mps 741 mmHg 75%
05:00 +21°C° 0 mm 3 mps 741 mmHg 80%
06:00 +22°C° 0 mm 3 mps 741 mmHg 77%
07:00 +24°C° 0 mm 3 mps 741 mmHg 73%
08:00 +26°C° 0 mm 3 mps 741 mmHg 70%
09:00 +27°C° 0 mm 2 mps 741 mmHg 65%
10:00 +29°C° 0 mm 2 mps 741 mmHg 59%
11:00 +30°C° 0 mm 2 mps 741 mmHg 54%
12:00 +31°C° 0 mm 2 mps 741 mmHg 51%
13:00 +32°C° 0 mm 2 mps 741 mmHg 48%
14:00 +34°C° 0 mm 2 mps 741 mmHg 45%
15:00 +32°C° 0 mm 2 mps 741 mmHg 45%
16:00 +32°C° 0 mm 2 mps 741 mmHg 45%
17:00 +32°C° 0 mm 1 mps 741 mmHg 44%
18:00 +30°C° 0 mm 1 mps 740 mmHg 51%
19:00 +28°C° 0 mm 1 mps 740 mmHg 57%
20:00 +27°C° 0 mm 1 mps 740 mmHg 63%
21:00 +26°C° 0 mm 1 mps 740 mmHg 64%
22:00 +26°C° 0 mm 2 mps 740 mmHg 65%
23:00 +26°C° 0 mm 2 mps 740 mmHg 66%

2 August, Monday

Time Temperature Precipitation Wind Pressure Humidity
00:00 +26°C° 0.1 mm 2 mps 740 mmHg 66%
01:00 +26°C° 0.1 mm 3 mps 739 mmHg 67%
02:00 +26°C° 0.1 mm 3 mps 739 mmHg 67%
03:00 +25°C° 0 mm 3 mps 739 mmHg 70%
04:00 +24°C° 0 mm 3 mps 739 mmHg 72%
05:00 +23°C° 0 mm 4 mps 739 mmHg 75%
06:00 +25°C° 0 mm 4 mps 739 mmHg 69%
07:00 +26°C° 0 mm 5 mps 739 mmHg 63%
08:00 +28°C° 0 mm 5 mps 739 mmHg 57%
09:00 +29°C° 0 mm 5 mps 739 mmHg 51%
10:00 +32°C° 0 mm 4 mps 739 mmHg 46%
11:00 +34°C° 0 mm 4 mps 739 mmHg 41%
12:00 +32°C° 0 mm 4 mps 739 mmHg 46%
13:00 +30°C° 0 mm 3 mps 739 mmHg 51%
14:00 +28°C° 0 mm 2 mps 740 mmHg 55%
15:00 +27°C° 0.2 mm 3 mps 740 mmHg 60%
16:00 +26°C° 0.2 mm 3 mps 740 mmHg 65%
17:00 +25°C° 0.2 mm 3 mps 740 mmHg 70%
18:00 +24°C° 1.1 mm 3 mps 740 mmHg 78%
19:00 +23°C° 1.1 mm 2 mps 741 mmHg 85%
20:00 +20°C° 1.1 mm 2 mps 741 mmHg 92%
21:00 +20°C° 0.2 mm 2 mps 741 mmHg 93%
22:00 +19°C° 0.2 mm 2 mps 742 mmHg 94%
23:00 +19°C° 0.2 mm 2 mps 742 mmHg 94%

3 August, Tuesday

Time Temperature Precipitation Wind Pressure Humidity
00:00 +18°C° 0.2 mm 2 mps 742 mmHg 94%
01:00 +18°C° 0.2 mm 3 mps 742 mmHg 94%
02:00 +17°C° 0.2 mm 3 mps 742 mmHg 94%
03:00 +17°C° 0 mm 3 mps 743 mmHg 94%
04:00 +16°C° 0 mm 3 mps 743 mmHg 94%
05:00 +15°C° 0 mm 2 mps 743 mmHg 94%
06:00 +17°C° 0 mm 2 mps 744 mmHg 87%
07:00 +18°C° 0 mm 3 mps 744 mmHg 81%
08:00 +20°C° 0 mm 3 mps 745 mmHg 74%
09:00 +22°C° 0 mm 3 mps 745 mmHg 67%
10:00 +24°C° 0 mm 3 mps 745 mmHg 60%
11:00 +26°C° 0 mm 3 mps 745 mmHg 53%
12:00 +26°C° 0 mm 3 mps 745 mmHg 50%
13:00 +27°C° 0 mm 3 mps 745 mmHg 47%
14:00 +28°C° 0 mm 3 mps 745 mmHg 44%
15:00 +27°C° 0 mm 3 mps 745 mmHg 48%
16:00 +26°C° 0 mm 3 mps 745 mmHg 52%
17:00 +25°C° 0 mm 3 mps 745 mmHg 56%
18:00 +24°C° 0 mm 2 mps 746 mmHg 59%
19:00 +23°C° 0 mm 2 mps 746 mmHg 62%
20:00 +22°C° 0 mm 1 mps 746 mmHg 65%
21:00 +21°C° 0 mm 1 mps 746 mmHg 67%
22:00 +20°C° 0 mm 1 mps 746 mmHg 69%
23:00 +19°C° 0 mm 1 mps 747 mmHg 72%

4 August, Wednesday

Time Temperature Precipitation Wind Pressure Humidity
00:00 +19°C° 0 mm 1 mps 747 mmHg 73%
01:00 +19°C° 0 mm 1 mps 747 mmHg 74%
02:00 +18°C° 0 mm 1 mps 747 mmHg 75%
03:00 +17°C° 0 mm 2 mps 747 mmHg 76%
04:00 +17°C° 0 mm 2 mps 747 mmHg 76%
05:00 +16°C° 0 mm 2 mps 747 mmHg 76%
06:00 +18°C° 0 mm 2 mps 747 mmHg 71%
07:00 +20°C° 0 mm 2 mps 747 mmHg 65%
08:00 +22°C° 0 mm 3 mps 747 mmHg 59%
09:00 +24°C° 0 mm 3 mps 747 mmHg 55%
10:00 +26°C° 0 mm 4 mps 747 mmHg 51%
11:00 +27°C° 0 mm 4 mps 747 mmHg 48%
12:00 +27°C° 0 mm 4 mps 746 mmHg 48%
13:00 +27°C° 0 mm 4 mps 746 mmHg 49%
14:00 +27°C° 0 mm 4 mps 745 mmHg 50%
15:00 +27°C° 0 mm 4 mps 745 mmHg 49%
16:00 +28°C° 0 mm 4 mps 745 mmHg 48%
17:00 +28°C° 0 mm 4 mps 744 mmHg 48%
18:00 +26°C° 0.3 mm 4 mps 744 mmHg 56%
19:00 +24°C° 0.3 mm 3 mps 744 mmHg 65%
20:00 +21°C° 0.3 mm 3 mps 743 mmHg 74%
21:00 +20°C° 0.9 mm 2 mps 744 mmHg 81%
22:00 +19°C° 0.9 mm 2 mps 744 mmHg 87%
23:00 +19°C° 0.9 mm 2 mps 744 mmHg 94%
Show more